Location: Oriwa
(40.7500°S, 175.3333°E)
Time: 12:16:07
(UTC+00:00)

BlueWalker 3 - Pass Details

Date: 03 February 2023
Orbit: 497 x 514 km, 53.2° (Epoch: 31 March)

Event Time Altitude Azimuth Distance (km) Brightness Sun altitude
Exits shadow 14:20:42 14° 83° (E) 1,520 4.6 -27.5°
Drops below altitude 10° 14:21:42 10° 96° (E) 1,760 5.1 -27.4°
Sets 14:24:32 0° 115° (ESE) 2,680 6.5 -27.1°
